Погода в Григорьевском

Россия / Ярославская область     57°42′16″N   40°00′14″E
темп.,
°C
ветер,
м/с
пор.,
м/с
влажн.,
%
обл.,
%
осадки,
мм/ч
давл.,
гПа
погр.,
м
13 апреля, вт
вт1300:00+7юв51291100 0.0 1031441
03:00+6юв4996100 0.0 1029265
06:00+5вюв489793 0.0 1028165
09:00+10ююв41080100 0.0 1027336
12:00+18ю61150100 0.0 1025833
15:00+19ю6104395 0.0 10241273
18:00+16ю51150100 0.0 1023290
21:00+12ю4106388 0.0 1024144
14 апреля, ср
ср1400:00+10ю3106973 0.0 1023158
03:00+9ю413742 0.0 1023225
06:00+8ю311755 0.0 1022206
09:00+13ю59557 0.0 1021364
12:00+18ю69415 0.0 1020929
15:00+19ююз683589 0.0 10191585
18:00+16ю3746100 0.0 1018149
21:00+12ю31059100 0.0 1019185
15 апреля, чт
чт1500:00+10ююз346816 0.0 101862
03:00+8зюз2271100 0.0 101812
06:00+8ссв117486 0.0 101911
09:00+11св236686 0.0 1019257
12:00+14св4464100 0.0 1019745
15:00+10св7776100 0.0 1021620
18:00+8св71181100 0.0 1022515
21:00+5св61386100 0.0 1023497
16 апреля, пт
пт1600:00+5св61382100 0.0 1024533
03:00+5св61284100 0.0 1024506
06:00+4св61177100 0.0 1025484
09:00+5всв71167100 0.0 1026549
12:00+9всв795636 0.0 1026811
15:00+11всв78465 0.0 10261124
18:00+10всв69455 0.0 1026838
21:00+6св5125840 0.0 1027305
17 апреля, сб
сб1700:00+4всв5136690 0.0 1028319
03:00+3всв512726 0.0 1029267
06:00+2всв5117657 0.0 1030250
09:00+7всв695412 0.0 1031532
12:00+11всв57405 0.0 10301130
15:00+12всв56370 0.0 10301391
18:00+11св46455 0.0 1030430
21:00+6св36615 0.0 103189